Warroad, MN

11:06 PM CDT on March 29, 2017 (GMT -0500)
Warroad International-Carlson

Weather History for KRRT - May, 2013

Change the Weather History Date:

Monday, May 20, 2013

  Actual Average Record
Temperature  
Mean Temperature 47 °F -  
Max Temperature 50 °F 64 °F 89 °F (1980)
Min Temperature 44 °F 42 °F 26 °F (1969)
Degree Days  
Heating Degree Days 18    
Moisture  
Dew Point 44 °F    
Average Humidity 88    
Maximum Humidity 93    
Minimum Humidity 81    
Precipitation  
Precipitation 1.76 in - - ()
Sea Level Pressure  
Sea Level Pressure 29.74 in    
Wind  
Wind Speed 18 mph (NE)    
Max Wind Speed 23 mph    
Max Gust Speed 32 mph    
Visibility 5 miles    
Events Rain    
Averages and records for this station are not official NWS values.
T = Trace of Precipitation, MM = Missing Value Source: NWS Daily Summary

Daily Weather History Graph

Daily Weather History Graph

Search for Another Location

Airport or City:

Trip Planner

Search our weather history database for the weather conditions in past years. The results will help you decide how hot, cold, wet, or windy it might be!

Date:

Astronomy

May. 20, 2013 Rise Set
Actual Time 5:32 AM CDT 9:03 PM CDT
Civil Twilight 4:53 AM CDT 9:43 PM CDT
Nautical Twilight 4:01 AM CDT 10:35 PM CDT
Astronomical Twilight 2:50 AM CDT 11:48 PM CDT
Moon 3:49 PM CDT (5/20) 2:54 AM CDT (5/20)
Length of Visible Light 16h 49m
Length of Day
15h 31m
Waxing Gibbous, 75% of the Moon is Illuminated
May 20
Waxing Gibbous
May 24
Full
May 31
Last Quarter
Jun 8
New
Jun 16
First Quarter

Hourly Weather History & Observations

Time (CDT) Temp. Windchill Dew Point Humidity Pressure Visibility Wind Dir Wind Speed Gust Speed Precip Events Conditions
12:14 AM 48.2 °F - 44.6 °F 87% 29.79 in 10.0 mi NE 16.1 mph 24.2 mph N/A   Overcast
12:34 AM 48.2 °F - 44.6 °F 87% 29.78 in 10.0 mi NE 16.1 mph 23.0 mph N/A   Overcast
12:54 AM 48.2 °F - 44.6 °F 87% 29.78 in 10.0 mi NE 15.0 mph 21.9 mph N/A   Overcast
1:14 AM 50.0 °F - 46.4 °F 87% 29.78 in 10.0 mi NE 16.1 mph 24.2 mph N/A   Drizzle
1:34 AM 50.0 °F - 46.4 °F 87% 29.78 in 7.0 mi NE 17.3 mph 26.5 mph 0.01 in   Overcast
1:54 AM 50.0 °F - 46.4 °F 87% 29.77 in 7.0 mi NE 18.4 mph 24.2 mph 0.01 in   Drizzle
2:13 AM 50.0 °F - 46.4 °F 87% 29.76 in 10.0 mi NE 19.6 mph 25.3 mph 0.01 in   Drizzle
2:34 AM 50.0 °F - 46.4 °F 87% 29.75 in 10.0 mi NNE 20.7 mph 27.6 mph 0.01 in   Overcast
2:54 AM 50.0 °F - 46.4 °F 87% 29.75 in 10.0 mi NE 16.1 mph 25.3 mph 0.01 in   Light Drizzle
3:13 AM 50.0 °F - 46.4 °F 87% 29.74 in 10.0 mi NNE 18.4 mph 27.6 mph N/A   Drizzle
3:34 AM 50.0 °F - 46.4 °F 87% 29.73 in 10.0 mi NNE 19.6 mph 27.6 mph N/A Rain Rain
3:54 AM 50.0 °F - 46.4 °F 87% 29.74 in 7.0 mi NE 21.9 mph 28.8 mph 0.02 in Rain Rain
4:13 AM 50.0 °F - 46.4 °F 87% 29.73 in 7.0 mi NNE 23.0 mph 29.9 mph 0.04 in Rain Rain
4:34 AM 48.2 °F - 44.6 °F 87% 29.73 in 5.0 mi NE 18.4 mph 27.6 mph 0.08 in Rain Rain
4:54 AM 48.2 °F - 44.6 °F 87% 29.72 in 7.0 mi NE 19.6 mph 28.8 mph 0.10 in Rain Light Rain
5:13 AM 48.2 °F - 44.6 °F 87% 29.71 in 5.0 mi NE 20.7 mph 31.1 mph 0.04 in Rain Rain
5:34 AM 48.2 °F - 44.6 °F 87% 29.71 in 7.0 mi NE 21.9 mph 31.1 mph 0.10 in Rain Rain
5:54 AM 48.2 °F - 44.6 °F 87% 29.71 in 4.0 mi NE 20.7 mph 28.8 mph 0.17 in Rain Rain
6:13 AM 48.2 °F - 44.6 °F 87% 29.71 in 2.5 mi NE 19.6 mph 25.3 mph 0.03 in Rain Heavy Rain
6:34 AM 48.2 °F - 44.6 °F 87% 29.71 in 7.0 mi NE 18.4 mph 27.6 mph 0.06 in Rain Rain
6:54 AM 48.2 °F - 44.6 °F 87% 29.71 in 3.0 mi NE 18.4 mph 28.8 mph 0.06 in   Drizzle
7:13 AM 48.2 °F - 44.6 °F 87% 29.71 in 3.0 mi NE 19.6 mph 27.6 mph 0.01 in   Drizzle
7:34 AM 48.2 °F - 44.6 °F 87% 29.71 in 4.0 mi NE 18.4 mph 24.2 mph 0.02 in Rain Rain
7:54 AM 46.4 °F 39.5 °F 44.6 °F 93% 29.72 in 2.0 mi NE 17.3 mph 25.3 mph 0.10 in Rain Rain
8:14 AM 46.4 °F 40.1 °F 42.8 °F 87% 29.72 in 1.2 mi NE 15.0 mph 23.0 mph 0.06 in Rain Rain
8:34 AM 46.4 °F 40.7 °F 44.6 °F 93% 29.72 in 4.0 mi NE 12.7 mph 20.7 mph 0.09 in Rain Light Rain
8:54 AM 46.4 °F 40.1 °F 44.6 °F 93% 29.71 in 3.0 mi NE 15.0 mph 20.7 mph 0.13 in Rain Rain
9:14 AM 46.4 °F 40.1 °F 42.8 °F 87% 29.71 in 7.0 mi NE 15.0 mph 23.0 mph 0.02 in Rain Light Rain
9:34 AM 46.4 °F 39.5 °F 44.6 °F 93% 29.71 in 4.0 mi NE 17.3 mph 25.3 mph 0.04 in Rain Rain
9:54 AM 46.4 °F 39.2 °F 44.6 °F 93% 29.71 in 5.0 mi NE 18.4 mph 24.2 mph 0.07 in Rain Rain
10:34 AM 46.4 °F 39.5 °F 44.6 °F 93% 29.71 in 3.0 mi NE 17.3 mph 25.3 mph 0.09 in Rain Rain
10:54 AM 46.4 °F 39.5 °F 42.8 °F 87% 29.72 in 2.5 mi NE 17.3 mph 24.2 mph 0.14 in Rain Rain
11:14 AM 48.2 °F - 44.6 °F 87% 29.71 in 2.5 mi NE 19.6 mph 27.6 mph 0.05 in Rain Rain
11:34 AM 48.2 °F - 44.6 °F 87% 29.71 in 3.0 mi NE 20.7 mph 27.6 mph 0.10 in Rain Rain
11:54 AM 48.2 °F - 44.6 °F 87% 29.71 in 5.0 mi NE 20.7 mph 26.5 mph 0.14 in Rain Rain
12:14 PM 48.2 °F - 44.6 °F 87% 29.70 in 7.0 mi NE 20.7 mph 29.9 mph 0.02 in Rain Light Rain
12:34 PM 48.2 °F - 44.6 °F 87% 29.70 in 5.0 mi NE 20.7 mph 28.8 mph 0.05 in Rain Rain
12:54 PM 48.2 °F - 44.6 °F 87% 29.70 in 5.0 mi NE 19.6 mph 32.2 mph 0.09 in Rain Rain
1:14 PM 48.2 °F - 44.6 °F 87% 29.70 in 3.0 mi NE 23.0 mph 27.6 mph 0.04 in Rain Rain
1:54 PM 48.2 °F - 44.6 °F 87% 29.70 in 4.0 mi NE 21.9 mph 27.6 mph 0.16 in Rain Rain
2:10 PM 48.2 °F - 44.6 °F 87% 29.70 in 3.0 mi NE 21.9 mph 28.8 mph 0.04 in Rain Rain
2:34 PM 48.2 °F - 44.6 °F 87% 29.71 in 4.0 mi NE 21.9 mph 29.9 mph 0.09 in Rain Rain
2:53 PM 48.2 °F - 44.6 °F 87% 29.71 in 5.0 mi NE 21.9 mph 28.8 mph 0.12 in Rain Rain
3:14 PM 48.2 °F - 44.6 °F 87% 29.71 in 3.0 mi NE 19.6 mph 26.5 mph 0.03 in Rain Light Rain
3:34 PM 46.4 °F 38.7 °F 44.6 °F 93% 29.72 in 2.5 mi NE 20.7 mph 26.5 mph 0.06 in Rain Rain
3:54 PM 46.4 °F 39.2 °F 44.6 °F 93% 29.72 in 3.0 mi NE 18.4 mph 28.8 mph 0.10 in Rain Rain
4:14 PM 46.4 °F 39.2 °F 42.8 °F 87% 29.72 in 2.0 mi NE 18.4 mph 28.8 mph 0.04 in Rain Rain
4:33 PM 46.4 °F 39.5 °F 42.8 °F 87% 29.72 in 2.5 mi NE 17.3 mph 27.6 mph 0.07 in Rain Light Rain
4:54 PM 46.4 °F 38.5 °F 42.8 °F 87% 29.73 in 1.5 mi NE 21.9 mph 29.9 mph 0.09 in   Heavy Drizzle
5:14 PM 46.4 °F 39.0 °F 42.8 °F 87% 29.73 in 2.5 mi NE 19.6 mph 27.6 mph 0.04 in Rain Rain
5:33 PM 46.4 °F 38.5 °F 42.8 °F 87% 29.73 in 2.0 mi NE 21.9 mph 27.6 mph 0.08 in Rain Rain
5:54 PM 46.4 °F 39.0 °F 42.8 °F 87% 29.74 in 2.0 mi NE 19.6 mph 27.6 mph 0.11 in Rain Heavy Rain
6:14 PM 46.4 °F 39.8 °F 42.8 °F 87% 29.75 in 1.5 mi NE 16.1 mph 24.2 mph 0.05 in Rain Rain
6:33 PM 46.4 °F 39.5 °F 42.8 °F 87% 29.75 in 7.0 mi NE 17.3 mph 25.3 mph 0.07 in Rain Rain
6:54 PM 46.4 °F 39.8 °F 42.8 °F 87% 29.75 in 1.5 mi NE 16.1 mph 24.2 mph 0.07 in   Heavy Drizzle
7:14 PM 46.4 °F 39.0 °F 42.8 °F 87% 29.75 in 2.0 mi NE 19.6 mph 26.5 mph 0.01 in   Drizzle
7:33 PM 46.4 °F 39.0 °F 42.8 °F 87% 29.76 in 1.8 mi NE 19.6 mph 27.6 mph 0.02 in   Drizzle
7:54 PM 46.4 °F 39.5 °F 42.8 °F 87% 29.76 in 4.0 mi NE 17.3 mph 25.3 mph 0.02 in   Light Drizzle
8:14 PM 46.4 °F 39.2 °F 42.8 °F 87% 29.77 in 5.0 mi NE 18.4 mph 26.5 mph N/A   Overcast
8:33 PM 46.4 °F 39.2 °F 42.8 °F 87% 29.77 in 4.0 mi NE 18.4 mph 23.0 mph N/A   Drizzle
9:14 PM 46.4 °F 40.4 °F 42.8 °F 87% 29.79 in 3.0 mi NE 13.8 mph 19.6 mph 0.01 in   Drizzle
9:34 PM 46.4 °F 39.5 °F 42.8 °F 87% 29.80 in 3.0 mi NE 17.3 mph 24.2 mph 0.02 in   Drizzle
9:54 PM 44.6 °F 37.2 °F 41.0 °F 87% 29.81 in 5.0 mi NE 17.3 mph - 0.02 in   Light Drizzle
10:14 PM 44.6 °F 37.8 °F 41.0 °F 87% 29.81 in 5.0 mi NE 15.0 mph 21.9 mph N/A   Overcast
10:34 PM 44.6 °F 37.2 °F 41.0 °F 87% 29.81 in 3.0 mi NE 17.3 mph 23.0 mph N/A   Drizzle
10:54 PM 44.6 °F 36.6 °F 41.0 °F 87% 29.82 in 2.5 mi NE 19.6 mph 24.2 mph 0.01 in   Drizzle
11:13 PM 44.6 °F 37.4 °F 41.0 °F 87% 29.82 in 2.5 mi NE 16.1 mph 25.3 mph N/A   Drizzle
11:34 PM 44.6 °F 36.9 °F 39.2 °F 81% 29.82 in 3.0 mi NE 18.4 mph 26.5 mph 0.01 in   Drizzle
11:54 PM 44.6 °F 35.9 °F 39.2 °F 81% 29.82 in 3.0 mi NE 23.0 mph 28.8 mph 0.02 in Rain Light Rain